Preview of NWS' New Version of Forecast
This preview is not operational and should not be used for support decisions.
Latest weather observations around

Beaumont/Port Arthur Southeast Texas Regional Airport (KBPT)

Using English Units (Switch to International System of Units)
Date/ Time (CDT) Wind (mph) Vis. (mi) Weather Sky Cond. Temp (°F) Rel. Humidity Wind Chill (°F) Heat Index (°F) Pressure Precip. (in)
Air Dwpt 6 hour Altimeter (inHg) Sea level (inHg) 1 hr 3 hr 6 hr
Max Min
Jun 20 03:53 SE 5 9 Clear CLR 80 76     87%   85 29.85   0 0  
Jun 20 03:24 Calm 10 Partly Cloudy FEW009 SCT032 81 77     88%   88 29.86   0    
Jun 20 02:53 W 8 10 Mostly Cloudy FEW019 BKN038 BKN049 83 77     82%   92 29.89 29.89 0    
Jun 20 02:38 WNW 7 10 Mostly Cloudy SCT019 BKN034 BKN065 83 78     85%   93 29.9        
Jun 20 02:30 NW 7 10 Mostly Cloudy BKN019 BKN035 83 78     85%   93 29.9        
Jun 20 01:53 SSW 6 10 Clear CLR 83 77     82%   92 29.84 29.84      
Jun 20 00:53 SSW 8 10 Clear CLR 83 77     82%   92 29.82 29.81      
Jun 19 23:53 SSW 8 10 Clear CLR 83 77     82%   92 29.81 29.81      
Jun 19 22:53 S 8 10 Mostly Clear FEW021 83 76     79%   91 29.78 29.78      
Jun 19 21:53 S 7 10 Clear CLR 82 76     82%   89 29.78 29.78      
Jun 19 20:53 S 9 10 Mostly Clear FEW008 83 75     77%   90 29.78 29.78      
Jun 19 19:53 S 10 10 Clear CLR 85 74     70%   92 29.78 29.78      
Jun 19 18:53 S 16 10 Partly Cloudy FEW025 SCT034 87 76     70%   98 29.79 29.79      
Jun 19 18:00 S 15 10 Partly Cloudy FEW025 SCT034 88 76     68%   99 29.81        
Jun 19 17:53 S 14 10 Mostly Cloudy BKN028 89 76     65%   100 29.81 29.8      
Jun 19 16:53 S 13 10 Mostly Cloudy BKN028 91 75     60%   102 29.82 29.82      
Jun 19 15:53 S 11 10 Mostly Cloudy BKN028 93 76     58%   106 29.83 29.83      
Jun 19 14:53 SSW 14 10 Partly Cloudy SCT031 93 74     54%   103 29.84 29.84      
Jun 19 13:53 SSW 10 10 Partly Cloudy SCT035 94 75     54%   106 29.86 29.85      
Jun 19 12:53 SSW 10 10 Partly Cloudy SCT035 93 75     56%   105 29.87 29.87      
Jun 19 11:57 SSW 8 10 Mostly Cloudy BKN032 93 75     56%   105 29.88        
Jun 19 11:53 SSW 8 10 Mostly Cloudy BKN028 93 74     54%   103 29.88 29.88      
Jun 19 11:31 WSW 9 10 Mostly Cloudy BKN028 91 75     60%   102 29.89        
Jun 19 10:53 SW 8 10 Partly Cloudy SCT018 90 75     62%   101 29.9 29.9      
Jun 19 09:53 SSW 6 10 Partly Cloudy SCT018 86 76     72%   96 29.91 29.91      
Jun 19 08:53 SW 9 10 Clear CLR 86 76     72%   96 29.91 29.9      
Jun 19 07:53 WSW 5 10 Clear CLR 82 76     82%   89 29.89 29.89      
Jun 19 06:53 SSW 3 10 Clear CLR 79 75     88%   83 29.86 29.86      
Jun 19 05:53 SSW 3 10 Clear CLR 77 75     94%   79 29.84 29.84      
Jun 19 04:53 SW 3 10 Clear CLR 78 75     90%   80 29.85 29.85      
Jun 19 03:53 SW 3 10 Clear CLR 79 75     88%   83 29.85 29.85      
Jun 19 02:53 SSW 5 10 Partly Cloudy SCT039 79 76     90%   83 29.86 29.85      
Jun 19 01:53 SW 6 10 Clear CLR 80 76     87%   85 29.88 29.88      
Jun 19 00:53 SSW 6 10 Clear CLR 81 76     85%   87 29.89 29.88      
Jun 18 23:53 SSW 3 10 Clear CLR 81 76     85%   87 29.9 29.9      
Jun 18 22:53 SSW 6 10 Clear CLR 81 75     82%   87 29.89 29.88      
Jun 18 21:53 S 5 10 Mostly Clear FEW042 81 75     82%   87 29.87 29.87      
Jun 18 20:53 S 7 10 Mostly Clear FEW042 82 75     79%   89 29.86 29.85      
Jun 18 19:53 SSW 7 10 Mostly Clear FEW042 86 74     67%   94 29.85 29.85      
Jun 18 18:53 SW 7 10 Clear CLR 88 74     63%   97 29.84 29.84      
Jun 18 17:53 SSW 8 10 Partly Cloudy SCT060 89 73     59%   97 29.84 29.84      
Jun 18 16:53 Calm 10 Partly Cloudy SCT044 92 70     49%   98 29.85 29.85      
Jun 18 15:53 SW 9 10 Mostly Clear FEW047 92 70     49%   98 29.86 29.85      
Jun 18 14:53 5 10 Partly Cloudy SCT043 93 71     49%   100 29.88 29.88      
Jun 18 14:43 7 10 Partly Cloudy SCT043 91 71     52%   98 29.89        
Jun 18 13:53 W 8 10 Partly Cloudy FEW040 FEW055 SCT070 91 70     50%   97 29.91 29.91      
Jun 18 12:53 5 10 Partly Cloudy SCT027 90 70     52%   95 29.93 29.93      
Jun 18 11:53 WSW 8 10 Partly Cloudy SCT027 89 71     55%   95 29.95 29.95      
Jun 18 10:53 5 10 Partly Cloudy SCT027 SCT060 86 73     65%   93 29.95 29.95      
Jun 18 09:53 SW 6 10 Partly Cloudy FEW019 SCT045 85 73     68%   92 29.94 29.94      
Jun 18 08:53 WSW 6 10 Cloudy OVC050 82 73     74%   87 29.94 29.93      
Jun 18 07:53 Calm 10 Mostly Cloudy BKN047 77 74     90%   79 29.93 29.93      
Jun 18 06:53 Calm 10 Mostly Clear FEW020 74 71     91%   75 29.92 29.92 0   0
Jun 18 05:56 Calm 8 Mostly Clear FEW020 73 71     94%   74 29.91        
Jun 18 05:53 Calm 1.25 Fog/Mist CLR 73 71     94%   74 29.91 29.9      
Jun 18 05:48 Calm 1.25 Fog/Mist CLR 73 70     89%   75 29.9        
Jun 18 05:34 Calm 0.75 Fog/Mist CLR 72 70     93%   73 29.91        
Jun 18 05:27 Calm 1.75 Fog/Mist CLR 73 70     90%   74 29.9        
Jun 18 05:10 Calm 4 Fog/Mist CLR 73 71     94%   74 29.9        
Jun 18 04:53 Calm 1.5 Fog/Mist CLR 73 71     94%   74 29.9 29.89      
Jun 18 04:49 Calm 1.75 Fog/Mist CLR 73 72     94%   75 29.9        
Jun 18 04:37 Calm 3 Fog/Mist CLR 73 71     94%   74 29.9        
Jun 18 04:29 Calm 1.75 Fog/Mist CLR 73 71     94%   74 29.9        
Jun 18 03:53 Calm 10 Clear CLR 74 72     94%   75 29.9 29.89      
Jun 18 02:53 Calm 5 Fog/Mist CLR 74 72     94%   75 29.9 29.9      
Jun 18 02:19 WSW 3 10 Clear CLR 75 72     90%   76 29.9        
Jun 18 02:11 WSW 3 2.5 Fog/Mist CLR 75 72     90%   76 29.9        
Jun 18 01:53 Calm 9 Clear CLR 76 73     91%   77 29.9 29.9      
Jun 18 00:53 Calm 10 Clear CLR 76 73     91%   77 29.89 29.89     0
Jun 17 23:53 Calm 10 Clear CLR 76 73     91%   77 29.89 29.89      
Jun 17 22:53 Calm 10 Clear CLR 78 73     85%   80 29.9 29.89      
Jun 17 21:53 S 3 10 Mostly Clear FEW034 78 73     85%   80 29.9 29.9   0  
Jun 17 20:53 ESE 6 10 Mostly Cloudy BKN028 BKN037 80 73     79%   84 29.88 29.88 0    
Jun 17 19:53 Calm 10 Light Rain SCT029 BKN035 BKN043 84 73     70%   90 29.87 29.86 0    
Jun 17 18:53 Calm 10 Mostly Cloudy SCT029 SCT039 BKN049 85 71     63%   90 29.85 29.85     0
Jun 17 17:53 3 10 Partly Cloudy SCT038 85 73     68%   92 29.84 29.84      
Jun 17 16:53 W 9 10 Partly Cloudy SCT038 85 73     68%   92 29.86 29.86 0    
Jun 17 15:53 SW 8 10 Partly Cloudy SCT038 85 70     61%   89 29.87 29.86      
Jun 17 14:53 S 8 10 Mostly Cloudy BKN020 84 71     65%   89 29.89 29.89      
Jun 17 13:53 SSW 8 10 Partly Cloudy SCT020 86 73     65%   93 29.91 29.91      
Jun 17 12:53 S 11 10 Mostly Cloudy BKN021 BKN035 85 74     70%   92 29.92 29.92      
Jun 17 11:53 SSE 13 10 Partly Cloudy SCT014 84 73     70%   90 29.92 29.91      
Jun 17 11:50 SE 11 10 Partly Cloudy SCT014 84 73     70%   91 29.92        
Jun 17 10:53 SE 10 10 Mostly Cloudy BKN016 84 74     72%   91 29.9 29.9      
Jun 17 10:30 SE 10 10 Mostly Cloudy BKN016 BKN110 82 73     74%   87 29.9        
Jun 17 09:53 SE 9 10 Partly Cloudy SCT014 80 73     79%   84 29.88 29.88      
Jun 17 07:53 Calm 10 Partly Cloudy SCT110 76 71     85%   77 29.88 29.88      
Jun 17 06:53 SE 16 10 Cloudy OVC100 75 71     88%   76 29.84 29.84 0   1
Jun 17 05:53 ESE 14 10 Light Rain BKN110 75 69     82%   76 29.88 29.87 0    
Jun 17 04:53 E 10 8 Rain BKN090 OVC110 73 69     87%   74 29.9 29.89 0    
May 15 09:53 WNW 6 10 Clear CLR 85 66     53%   87 29.97 29.97 0 0  
May 15 00:53 W 6 10 Clear CLR 73 69     87%   74 29.95 29.95     0
May 14 05:43 Calm 0.25 Fog VV012 70 69     97%     29.98        
May 14 03:53 Calm 3 Fog/Mist CLR 72 70     93%   73 29.98 29.97      
May 13 12:53 SE 10 10 Mostly Cloudy SCT035 BKN047 BKN060 88 69     54%   92 30.05 30.05      
May 12 07:53 SSE 8 10 Clear CLR 76 70     82%   77 30.02 30.02      
May 11 21:53   10 Clear CLR 77 70     79%   78 29.99 29.99      
Notice The following observation data may not be complete
May 11 07:42   10 Mostly Clear FEW022          %              
Jun 11 21:00 SE 9 10 Mostly Cloudy FEW014 BKN035 BKN043 79 76     90%   83 29.92        
Jun 11 11:53 SE 9 10 Cloudy BKN021 OVC032 84 76     77%   93 29.96 29.96 0    
Jun 10 21:53 SE 9 10 Clear CLR 77 69     77%   78 29.94 29.94      
Jun 08 07:53 NNE 6 10 Clear CLR 72 61     68%   72 29.97 29.97      
Jun 06 12:53 W 10 10 Partly Cloudy FEW029 SCT085 85 73     68%   92 29.73 29.73      
Jun 06 07:53 NNW 3 8 Mostly Cloudy BKN014 BKN032 74 72     94%   75 29.75 29.74